Location: Cerezo de Arriba
(41.2389°N, 3.5585°W)
Time: 03:33:09
(UTC+00:00)

Cosmos 1980 Rocket - Pass Details

Date: 19 May 2025
Orbit: 829 x 848 km, 71.0° (Epoch: 23 June)

Event Time Altitude Azimuth Distance (km) Brightness Sun altitude
Rises 20:47:11 0° 348° (NNW) 3,380 6.3 -12.8°
Reaches altitude 10° 20:50:32 10° 9° (N) 2,444 5.1 -13.2°
Maximum altitude 20:54:09 17° 49° (NE) 1,978 4.1 -13.7°
Enters shadow 20:57:45 10° 90° (E) 2,439 4.2 -14.2°
